Regional Weather Roundup
Issued by NWS

Home | Current Version | Previous Version | Graphics & Text | Print | Product List | Glossary On
Versions: 1 2 3 4 5 6 7 8 9 10 11 12 13 14 15 16 17 18 19 20 21 22 23 24 25 26 27
000
ASUS45 KTFX 310510
RWRMT
MONTANA REGIONAL WEATHER ROUNDUP
NATIONAL WEATHER SERVICE GREAT FALLS MT
1100 PM MDT MON MAY 30 2016

NOTE: "FAIR" INDICATES FEW OR NO CLOUDS BELOW 12000 FEET WITH NO
SIGNIFICANT WEATHER AND/OR OBSTRUCTIONS TO VISIBILITY.

MTZ001>007-043-310600-
WEST OF THE DIVIDE

CITY           SKY/WX    TMP DP  RH WIND       PRES   REMARKS
KALISPELL      CLEAR     49  38  65 CALM      30.16R
MISSOULA       PTCLDY    50  36  58 N7        30.17R
BUTTE          PTCLDY    49  25  39 CALM      30.21R
MULLAN PASS    CLEAR     41  28  60 NW3       30.25R
ANACONDA         N/A     48  27  43 CALM      30.20R
DEER LODGE       N/A     46  30  53 W5        30.20S
EUREKA           N/A     54  41  62 CALM      30.18
HAMILTON         N/A     54  34  47 SE3       30.16R
LIBBY            N/A     52  37  58 SE5       30.18R
$$

MTZ008-052>055-310600-
SOUTHWEST MONTANA

CITY           SKY/WX    TMP DP  RH WIND       PRES   REMARKS
BOZEMAN        CLEAR     47  34  60 W8        30.17R
DILLON         CLEAR     47  27  45 E9        30.17R
W YELLOWSTONE  CLEAR     37  28  70 CALM      30.22R
ENNIS          CLEAR     52  23  32 NE12G18   30.22R
$$

MTZ009-010-012-014-046-048-049-054-310600-
EAST SLOPES AND CENTRAL MONTANA

CITY           SKY/WX    TMP DP  RH WIND       PRES   REMARKS
CUT BANK       PTCLDY    42  38  85 NW13      30.22R
GREAT FALLS    CLOUDY    47  40  76 N5        30.21R
MALMSTROM AFB  CLOUDY    51  40  67 NW1       30.21R
HELENA         CLEAR     51  36  56 NW9       30.19R
CHOTEAU          N/A     45  39  81 NW9       30.23R
$$

MTZ011-013-016-021-045-047-050-051-310600-
NORTH CENTRAL MONTANA

CITY           SKY/WX    TMP DP  RH WIND       PRES   REMARKS
HAVRE          CLOUDY    49  44  83 NW18      30.10S
LEWISTOWN      CLOUDY    46  39  76 W10       30.17R
N BAR RANCH      N/A     43  37  81 NW37G45   30.08F
CHINOOK          N/A     50  45  81 W14       30.06S
$$

MTZ017>020-022>027-061-062-310600-
NORTHEAST MONTANA

CITY           SKY/WX    TMP DP  RH WIND       PRES   REMARKS
GLASGOW        MOCLDY    48  42  80 W12       29.93F
JORDAN           N/A     49  41  74 W20G25    30.00F
SIDNEY         PTCLDY    52  45  76 W12       29.91F
WOLF POINT     CLOUDY    52  44  74 W12       29.92F
POPLAR           N/A     52  45  76 W12G18    29.92F
$$

MTZ028>42-056>058-310600-
SOUTHCENTRAL AND SOUTHEAST MONTANA

CITY           SKY/WX    TMP DP  RH WIND       PRES   REMARKS
BAKER          PTCLDY    46  43  89 W10       29.99F
BILLINGS       MOCLDY    51  36  56 W8        30.13S
LIVINGSTON     CLEAR     47  33  58 W8        30.18R
MILES CITY     MOCLDY    53  36  52 W23G30    30.02F
FORSYTH          N/A     54  37  54 W23G32    30.05F
$$

REGIONAL REPORTS...DAKOTAS

CITY           SKY/WX    TMP DP  RH WIND       PRES   REMARKS
WILLISTON      LGT RAIN  53  50  89 NW9       29.89F
MINOT          RAIN      58  54  86 NW9       29.84F
DICKINSON      MOCLDY    49  46  90 W17       29.88F
BEACH            N/A     45  45 100 W8        29.98F
CROSBY         CLOUDY    52  52 100 NE9       29.89F
WATFORD CITY   LGT RAIN  50  50 100 W13G23    29.89F
BISMARCK       CLOUDY    56  54  93 NW9       29.82F
GRAND FORKS    RAIN      60  56  86 E20       29.79F
FARGO          RAIN      62  58  86 NW17      29.77R FOG
BUFFALO SD       N/A     46  42  86 W14       29.93F
RAPID CITY     CLEAR     51  42  71 NW17      30.04R
$$

REGIONAL REPORTS...WYOMING/IDAHO/WASHINGTON

CITY           SKY/WX    TMP DP  RH WIND       PRES   REMARKS
GILLETTE       MOCLDY    45  42  89 W7        30.12S
SHERIDAN       CLEAR     43  39  86 NW7       30.13F
BUFFALO WY     CLOUDY    46  41  82 E6        30.16R
CODY           CLOUDY    50  36  57 NW7       30.17R
YELLOWSTONE LA   N/A     35  24  64 W3        30.26R
IDAHO FALLS    MOCLDY    56  32  40 CALM      30.10R
SALMON         CLEAR     48  30  49 SE3       30.14R
BOISE          PTCLDY    64  31  28 CALM      30.08R
SPOKANE        PTCLDY    61  31  32 SW3       30.17R
$$

REGIONAL REPORTS...ALBERTA

CITY           SKY/WX    TMP DP  RH WIND       PRES   REMARKS
EDMONTON       PTCLDY    50  43  76 NW6       30.22R
CALGARY        PTCLDY    46  39  76 N6        30.26R
LETHBRIDGE     MOCLDY    50  41  71 NW12      30.22R
MEDICINE HAT   LGT RAIN  48  46  93 NW16      30.12R
WATERTON GATE    N/A     43  41  93 SE1         N/A
CARDSTON         N/A     45  41  87 W10         N/A
MILK RIVER       N/A     43  39  87 N8          N/A
ONEFOUR          N/A     46  43  87 NW21        N/A
$$

REGIONAL REPORTS...SASKATCHEWAN

CITY           SKY/WX    TMP DP  RH WIND       PRES   REMARKS
SWIFT CURRENT  LGT RAIN  50  50 100 N13       29.96R
REGINA         LGT RAIN  54  52  94 E9        29.93F
SASKATOON      PTCLDY    52  46  82 NE7       30.03S
CYPRESS HILLS    N/A     43  41  93 N13G28      N/A
ROCKGLEN         N/A     50  48  93 N6          N/A
$$




USA.gov is the U.S. government's official web portal to all federal, state and local government web resources and services.